GSAT0101 (GALILEO-PFM)

Last updated on Sat Sep 19 2026 00:02:48 GMT+0000 (Coordinated Universal Time)

1 37846U 11060A 26261.11544614 -.00000096 00000+0 00000+0 0 9993 2 37846 56.9565 339.2412 0000201 333.5692 26.4822 1.70475808 92706
UTC large
Height (km)
Speed (km/s)
/
Latitude / Longitude
Inclination (degrees)
Orbital Period (minutes)
Azimuth
Elevation
Range (km)
Doppler Factor

Next 0 passes for location: London (51.5072 / 0.1276)

No passes found over London.
GSAT0101 (GALILEO-PFM)